BEIDOU-2 G7

Last updated on Wed Jul 09 2025 00:02:46 GMT+0000 (Coordinated Universal Time)

1 41586U 16037A 25189.63211213 -.00000340 00000+0 00000+0 0 9991 2 41586 1.8150 69.1664 0009835 11.9578 183.7937 1.00269928 3445
UTC large
Height (km)
Speed (km/s)
/
Latitude / Longitude
Inclination (degrees)
Orbital Period (minutes)
Azimuth
Elevation
Range (km)
Doppler Factor

Next 0 passes for location: London (51.5072 / 0.1276)

Sorry there are no passes over London.